| time (UTC) | temp F | wind direction | speed MPH | gust MPH | rain 1hr in | rain 24hr in | rain mn in | humidity % | barometer mb |
| 20260905170105 | 87 | 182 | 3.0 | 9.0 | 0.00 | 0.00 | 0.00 | 50 | 1017.5 |
| 20260905164603 | 87 | 132 | 4.0 | 12.0 | 0.00 | 0.00 | 0.00 | 51 | 1017.4 |
| 20260905163108 | 85 | 156 | 3.0 | 13.0 | 0.00 | 0.00 | 0.00 | 54 | 1017.2 |
| 20260905161619 | 84 | 209 | 6.0 | 11.0 | 0.00 | 0.00 | 0.00 | 55 | 1017.3 |
| 20260905160117 | 84 | 153 | 6.0 | 17.0 | 0.00 | 0.00 | 0.00 | 57 | 1017.1 |
| 20260905154605 | 83 | 162 | 7.0 | 14.0 | 0.00 | 0.00 | 0.00 | 58 | 1017.0 |
| 20260905153104 | 82 | 157 | 8.0 | 14.0 | 0.00 | 0.00 | 0.00 | 60 | 1017.1 |
| 20260905151606 | 81 | 165 | 8.0 | 14.0 | 0.00 | 0.00 | 0.00 | 61 | 1017.0 |
| 20260905150112 | 80 | 168 | 9.0 | 14.0 | 0.00 | 0.00 | 0.00 | 62 | 1017.1 |
| 20260905144609 | 79 | 169 | 7.0 | 14.0 | 0.00 | 0.00 | 0.00 | 64 | 1016.9 |
| 20260905143110 | 78 | 159 | 11.0 | 15.0 | 0.00 | 0.00 | 0.00 | 65 | 1017.1 |
| 20260905141605 | 77 | 157 | 11.0 | 16.0 | 0.00 | 0.00 | 0.00 | 67 | 1016.9 |
| 20260905140107 | 76 | 159 | 11.0 | 15.0 | 0.00 | 0.00 | 0.00 | 68 | 1017.0 |
| 20260905134609 | 76 | 134 | 11.0 | 16.0 | 0.00 | 0.00 | 0.00 | 69 | 1016.9 |
| 20260905133106 | 75 | 148 | 10.0 | 13.0 | 0.00 | 0.00 | 0.00 | 70 | 1016.8 |
| 20260905131605 | 75 | 133 | 9.0 | 11.0 | 0.00 | 0.00 | 0.00 | 71 | 1016.4 |
| 20260905130104 | 74 | 124 | 9.0 | 11.0 | 0.00 | 0.00 | 0.00 | 71 | 1016.3 |
| 20260905124600 | 74 | 138 | 9.0 | 11.0 | 0.00 | 0.00 | 0.00 | 71 | 1016.1 |
| 20260905123108 | 74 | 130 | 5.0 | 9.0 | 0.00 | 0.00 | 0.00 | 71 | 1016.1 |
| 20260905121601 | 74 | 128 | 4.0 | 10.0 | 0.00 | 0.00 | 0.00 | 70 | 1015.9 |
| 20260905120106 | 75 | 134 | 5.0 | 10.0 | 0.00 | 0.00 | 0.00 | 69 | 1015.8 |
| 20260905114603 | 75 | 141 | 7.0 | 12.0 | 0.00 | 0.00 | 0.00 | 69 | 1015.8 |
| 20260905113105 | 75 | 138 | 8.0 | 10.0 | 0.00 | 0.00 | 0.00 | 68 | 1015.7 |
| 20260905111645 | 75 | 126 | 4.0 | 8.0 | 0.00 | 0.00 | 0.00 | 67 | 1015.8 |
| 20260905110100 | 76 | 120 | 4.0 | 7.0 | 0.00 | 0.00 | 0.00 | 65 | 1016.0 |
| 20260905104559 | 76 | 115 | 5.0 | 9.0 | 0.00 | 0.00 | 0.00 | 64 | 1016.1 |
| 20260905103104 | 76 | 120 | 7.0 | 8.0 | 0.00 | 0.00 | 0.00 | 64 | 1016.2 |
| 20260905101602 | 77 | 122 | 4.0 | 7.0 | 0.00 | 0.00 | 0.00 | 64 | 1016.0 |
| 20260905100109 | 77 | 121 | 4.0 | 9.0 | 0.00 | 0.00 | 0.00 | 64 | 1016.0 |
| 20260905094604 | 78 | 142 | 6.0 | 10.0 | 0.00 | 0.00 | 0.00 | 63 | 1015.8 |
| 20260905093101 | 78 | 138 | 8.0 | 10.0 | 0.00 | 0.00 | 0.00 | 63 | 1015.7 |
| 20260905091610 | 78 | 156 | 5.0 | 8.0 | 0.00 | 0.00 | 0.00 | 62 | 1015.6 |
| 20260905084603 | 79 | 168 | 6.0 | 9.0 | 0.00 | 0.00 | 0.00 | 62 | 1015.4 |
| 20260905083058 | 78 | 166 | 6.0 | 9.0 | 0.00 | 0.00 | 0.00 | 62 | 1015.4 |
| 20260905081607 | 78 | 171 | 4.0 | 6.0 | 0.00 | 0.00 | 0.00 | 61 | 1015.2 |
| 20260905080105 | 79 | 167 | 4.0 | 7.0 | 0.00 | 0.00 | 0.00 | 61 | 1015.4 |
| 20260905074600 | 79 | 172 | 4.0 | 8.0 | 0.00 | 0.00 | 0.00 | 61 | 1015.6 |
| 20260905073104 | 78 | 164 | 5.0 | 7.0 | 0.00 | 0.00 | 0.00 | 61 | 1015.7 |
| 20260905071600 | 78 | 163 | 2.0 | 6.0 | 0.00 | 0.00 | 0.00 | 60 | 1015.9 |
| 20260905070105 | 78 | 169 | 3.0 | 7.0 | 0.00 | 0.00 | 0.00 | 61 | 1016.1 |
| 20260905064603 | 78 | 179 | 2.0 | 5.0 | 0.00 | 0.00 | 0.00 | 60 | 1015.9 |
| 20260905063104 | 79 | 186 | 5.0 | 7.0 | 0.00 | 0.00 | 0.00 | 59 | 1015.9 |
| 20260905061613 | 79 | 188 | 4.0 | 7.0 | 0.00 | 0.00 | 0.00 | 58 | 1016.0 |
| 20260905060108 | 80 | 184 | 3.0 | 5.0 | 0.00 | 0.00 | 0.00 | 57 | 1015.9 |
| 20260905054600 | 80 | 186 | 4.0 | 7.0 | 0.00 | 0.00 | 0.00 | 57 | 1015.8 |
| 20260905053104 | 81 | 176 | 4.0 | 9.0 | 0.00 | 0.00 | 0.00 | 56 | 1015.8 |
| 20260905051558 | 81 | 180 | 6.0 | 12.0 | 0.00 | 0.00 | 0.00 | 56 | 1015.8 |
| 20260905050108 | 81 | 190 | 10.0 | 17.0 | 0.00 | 0.00 | 0.00 | 55 | 1016.0 |
| 20260905044607 | 81 | 179 | 6.0 | 12.0 | 0.00 | 0.00 | 0.00 | 55 | 1016.0 |
| 20260905043101 | 81 | 188 | 8.0 | 19.0 | 0.00 | 0.00 | 0.00 | 56 | 1015.8 |
| 20260905041604 | 81 | 175 | 9.0 | 20.0 | 0.00 | 0.00 | 0.00 | 56 | 1016.0 |
| 20260905040106 | 81 | 173 | 13.0 | 24.0 | 0.00 | 0.00 | 0.00 | 55 | 1016.1 |
| 20260905034604 | 81 | 159 | 13.0 | 20.0 | 0.00 | 0.00 | 0.00 | 56 | 1016.0 |
| 20260905033104 | 81 | 161 | 15.0 | 22.0 | 0.00 | 0.00 | 0.00 | 57 | 1016.1 |
| 20260905031604 | 80 | 157 | 16.0 | 25.0 | 0.00 | 0.00 | 0.00 | 58 | 1016.0 |
| 20260905030123 | 80 | 163 | 18.0 | 31.0 | 0.00 | 0.00 | 0.00 | 59 | 1015.8 |
| 20260905024601 | 82 | 171 | 22.0 | 32.0 | 0.00 | 0.00 | 0.00 | 55 | 1015.4 |
| 20260905023101 | 83 | 138 | 20.0 | 32.0 | 0.00 | 0.00 | 0.00 | 52 | 1015.0 |
| 20260905021603 | 84 | 150 | 17.0 | 25.0 | 0.00 | 0.00 | 0.00 | 48 | 1014.9 |
| 20260905020109 | 85 | 138 | 19.0 | 29.0 | 0.00 | 0.00 | 0.00 | 47 | 1014.4 |
| 20260905014559 | 85 | 140 | 17.0 | 30.0 | 0.00 | 0.00 | 0.00 | 45 | 1014.2 |
| 20260905013100 | 87 | 123 | 18.0 | 31.0 | 0.00 | 0.00 | 0.00 | 41 | 1014.2 |
| 20260905011559 | 90 | 131 | 24.0 | 30.0 | 0.00 | 0.00 | 0.00 | 36 | 1014.0 |
| 20260905010113 | 92 | 126 | 16.0 | 26.0 | 0.00 | 0.00 | 0.00 | 34 | 1013.9 |
| 20260905004614 | 92 | 117 | 16.0 | 28.0 | 0.00 | 0.00 | 0.00 | 35 | 1014.0 |
| 20260905003103 | 92 | 123 | 17.0 | 27.0 | 0.00 | 0.00 | 0.00 | 34 | 1013.6 |
| 20260905001605 | 93 | 109 | 21.0 | 32.0 | 0.00 | 0.00 | 0.00 | 33 | 1013.7 |
| 20260904234604 | 99 | 189 | 5.0 | 13.0 | 0.00 | 0.00 | 0.00 | 21 | 1013.4 |
| 20260904233107 | 99 | 175 | 1.0 | 3.0 | 0.00 | 0.00 | 0.00 | 20 | 1013.1 |
| 20260904231605 | 99 | 0 | 2.0 | 13.0 | 0.00 | 0.00 | 0.00 | 20 | 1012.7 |
| 20260904230112 | 100 | 188 | 2.0 | 12.0 | 0.00 | 0.00 | 0.00 | 20 | 1012.8 |
| 20260904224602 | 100 | 169 | 6.0 | 11.0 | 0.00 | 0.00 | 0.00 | 20 | 1012.9 |
| 20260904223104 | 100 | 233 | 2.0 | 7.0 | 0.00 | 0.00 | 0.00 | 20 | 1012.8 |
| 20260904221613 | 100 | 265 | 6.0 | 12.0 | 0.00 | 0.00 | 0.00 | 20 | 1012.7 |
| 20260904220107 | 100 | 150 | 7.0 | 14.0 | 0.00 | 0.00 | 0.00 | 20 | 1013.0 |
| 20260904214624 | 99 | 74 | 5.0 | 11.0 | 0.00 | 0.00 | 0.00 | 20 | 1012.9 |
| 20260904213103 | 99 | 168 | 9.0 | 17.0 | 0.00 | 0.00 | 0.00 | 21 | 1013.2 |
| 20260904211621 | 100 | 188 | 7.0 | 14.0 | 0.00 | 0.00 | 0.00 | 20 | 1013.4 |
| 20260904204602 | 99 | 164 | 6.0 | 15.0 | 0.00 | 0.00 | 0.00 | 22 | 1014.2 |
| 20260904203114 | 99 | 129 | 12.0 | 15.0 | 0.00 | 0.00 | 0.00 | 22 | 1014.3 |
| 20260904201606 | 99 | 126 | 6.0 | 13.0 | 0.00 | 0.00 | 0.00 | 22 | 1014.6 |
| 20260904200117 | 98 | 157 | 4.0 | 16.0 | 0.00 | 0.00 | 0.00 | 24 | 1014.8 |
| 20260904194600 | 97 | 47 | 5.0 | 20.0 | 0.00 | 0.00 | 0.00 | 25 | 1015.0 |
| 20260904193101 | 97 | 77 | 3.0 | 12.0 | 0.00 | 0.00 | 0.00 | 24 | 1015.2 |
| 20260904191601 | 98 | 205 | 7.0 | 14.0 | 0.00 | 0.00 | 0.00 | 24 | 1015.2 |
| 20260904190105 | 96 | 85 | 4.0 | 14.0 | 0.00 | 0.00 | 0.00 | 25 | 1015.5 |
| 20260904184602 | 97 | 171 | 6.0 | 11.0 | 0.00 | 0.00 | 0.00 | 25 | 1015.4 |
| 20260904183104 | 96 | 213 | 11.0 | 17.0 | 0.00 | 0.00 | 0.00 | 25 | 1015.7 |
| 20260904181604 | 96 | 182 | 4.0 | 11.0 | 0.00 | 0.00 | 0.00 | 27 | 1016.0 |
| 20260904180119 | 95 | 94 | 3.0 | 12.0 | 0.00 | 0.00 | 0.00 | 28 | 1016.2 |
| 20260904174610 | 95 | 265 | 7.0 | 11.0 | 0.00 | 0.00 | 0.00 | 29 | 1016.5 |
| 20260904173107 | 94 | 232 | 7.0 | 16.0 | 0.00 | 0.00 | 0.00 | 30 | 1016.8 |
| 20260904171604 | 94 | 239 | 6.0 | 13.0 | 0.00 | 0.00 | 0.00 | 31 | 1017.0 |